Huvudsida
METAR-TAF:

METAR-TAF

Flygplatser :

Bandar Lengeh Airport

Bandar Lengeh, Iran

latitud: 26-35N, longitud: 054-50E, höjd: 14 m

Aktuellt väderrapport

Denna rapport gjordes för 2 timmar och 52 minuter sedan, klockan 18:00 UTC
Stilla vind
Temperatur 22°C
Fuktighet 41%
Tryck 1014 hPa
Sikt 10 km eller mer
Inga moln under 1 500 m eller inga cumulonimbus

METAR: OIBL 111800Z 00000KT CAVOK 22/08 Q1014

Tid: 00:22 (20:52 UTC)


TAF: saknas

Aktuella väderrapporter och prognoser från 4000 flygplatser (METAR- och TAF-rapporter).

De tillgängliga stationerna syns som gula och röda prickar på kartan.

För musen över prickarna för att se namnen på stationerna.

Klicka sedan för att få väderrapporter och prognoser.

För att ändra kartan: Klicka på de gröna knapparna med ett svart kors på för att zooma in; den gröna knappen med ett streck på för att zooma ut; eller på de gröna pilarna för angränsande kartor.


METAR-TAF: